Date String (YYYY-MM-DD hh:mm:ss) UTC,Instrument flags,Ambient pressure (hPa),Sample flow (lpm),Bypass flow (lpm),Sample temperature (°C),Ambient temperature (°C),ASC tube jacket temperature (°C),LED temperature (°C),Box temperature (°C),Sample RH (%),Span deviation,Mass concentration (μg/m³),Mass concentration (μg/m³),Mass concentration (μg/m³)
DateTimeUTC,F1_M11,P_M11,Q1_M11,Q2_M11,T1_M11,T2_M11,T3_M11,T4_M11,T5_M11,U1_M11,ZSPAN_M11,X2_M11,X0_M11,X1_M11
2022-03-03 23:00:00,,0823.5,5.00,0.00,30.4,29.5,00.0,39.2,32.2,08.4,0000.3,0009.93,0018.10,0009.16
2022-03-03 23:01:00,,0823.5,5.01,0.00,30.3,27.9,00.0,39.2,31.8,08.5,0000.2,0010.01,0019.95,0009.21
2022-03-03 23:02:00,,0823.4,4.99,0.00,30.1,26.0,00.0,39.1,31.3,08.5,0000.3,0010.06,0020.32,0009.24
2022-03-03 23:03:00,,0823.4,4.99,0.00,30.0,25.9,00.0,39.1,31.2,08.6,0000.3,0010.09,0021.96,0009.28
2022-03-03 23:04:00,,0823.4,5.01,0.00,29.9,26.3,00.0,39.0,31.3,08.6,-000.1,0010.12,0022.90,0009.30
2022-03-03 23:05:00,,0823.3,5.00,0.00,29.8,26.8,00.0,39.0,31.4,08.5,-000.6,0010.13,0023.20,0009.29
2022-03-03 23:06:00,,0823.3,5.00,0.00,29.8,27.3,00.0,38.9,31.5,08.7,-000.9,0010.19,0022.79,0009.30
2022-03-03 23:07:00,,0823.3,4.98,0.00,29.9,27.7,00.0,38.9,31.5,08.6,-000.8,0010.26,0023.03,0009.33
2022-03-03 23:08:00,,0823.3,5.02,0.00,29.9,28.0,00.0,38.9,31.6,08.6,-000.3,0010.30,0022.94,0009.35
2022-03-03 23:09:00,,0823.3,4.99,0.00,29.9,28.2,00.0,38.9,31.6,08.5,-000.4,0010.31,0022.19,0009.34
2022-03-03 23:10:00,,0823.3,5.01,0.00,29.9,28.5,00.0,38.9,31.7,08.6,-000.7,0010.35,0022.83,0009.37
2022-03-03 23:11:00,,0823.3,4.99,0.00,30.0,28.7,00.0,38.9,31.8,08.5,-000.7,0010.39,0022.81,0009.39
2022-03-03 23:12:00,,0823.4,5.02,0.00,30.0,28.9,00.0,38.9,31.7,08.6,-000.7,0010.37,0020.95,0009.40
2022-03-03 23:13:00,,0823.4,4.98,0.00,30.0,29.0,00.0,38.9,31.8,08.6,-001.0,0010.33,0020.32,0009.39
2022-03-03 23:14:00,,0823.4,5.01,0.00,30.0,29.0,00.0,38.9,31.9,08.6,-001.2,0010.33,0019.91,0009.37
2022-03-03 23:15:00,,0823.4,5.00,0.00,30.1,29.1,00.0,38.9,31.9,08.5,-000.8,0010.33,0019.34,0009.36
2022-03-03 23:16:00,,0823.4,4.99,0.00,30.1,29.2,00.0,39.0,32.0,08.6,-000.3,0010.31,0019.71,0009.35
2022-03-03 23:17:00,,0823.4,5.01,0.00,30.2,29.3,00.0,39.0,32.0,08.5,0000.3,0010.29,0020.35,0009.35
2022-03-03 23:18:00,,0823.3,4.99,0.00,30.2,29.3,00.0,39.0,32.1,08.5,0000.2,0010.30,0020.21,0009.38
2022-03-03 23:19:00,,0823.3,5.03,0.00,30.2,29.4,00.0,39.0,32.1,08.4,-000.1,0010.33,0021.34,0009.41
2022-03-03 23:20:00,,0823.3,4.99,0.00,30.3,29.4,00.0,39.0,32.1,08.4,0000.1,0010.34,0021.07,0009.42
2022-03-03 23:21:00,,0823.2,5.01,0.00,30.3,29.5,00.0,39.1,32.2,08.4,0000.7,0010.36,0021.28,0009.43
2022-03-03 23:22:00,,0823.3,4.99,0.00,30.3,29.5,00.0,39.1,32.2,08.4,0000.8,0010.37,0021.79,0009.44
2022-03-03 23:23:00,,0823.3,5.00,0.00,30.4,29.6,00.0,39.1,32.2,08.3,0000.2,0010.43,0023.70,0009.49
2022-03-03 23:24:00,,0823.3,5.02,0.00,30.4,29.5,00.0,39.2,32.2,08.3,0000.8,0010.49,0025.06,0009.55
2022-03-03 23:25:00,,0823.3,4.99,0.00,30.3,27.8,00.0,39.2,31.8,08.4,0000.7,0010.55,0024.98,0009.61
2022-03-03 23:26:00,,0823.3,5.00,0.00,30.1,26.0,00.0,39.1,31.4,08.5,-000.2,0010.60,0026.35,0009.66
2022-03-03 23:27:00,,0823.3,4.99,0.00,30.0,25.9,00.0,39.1,31.3,08.6,0000.2,0010.66,0027.17,0009.71
2022-03-03 23:28:00,,0823.3,5.01,0.00,29.9,26.4,00.0,39.0,31.4,08.8,0000.1,0010.67,0026.66,0009.73
2022-03-03 23:29:00,,0823.3,5.01,0.00,29.9,26.9,00.0,39.0,31.4,08.6,-000.3,0010.72,0027.52,0009.76
2022-03-03 23:30:00,,0823.4,4.99,0.00,29.9,27.3,00.0,38.9,31.5,08.6,-000.3,0010.76,0026.75,0009.78
2022-03-03 23:31:00,,0823.3,5.01,0.00,29.9,27.7,00.0,38.9,31.5,08.6,-000.1,0010.84,0026.40,0009.82
2022-03-03 23:32:00,,0823.3,4.99,0.00,29.9,28.0,00.0,38.9,31.6,08.6,-000.3,0010.87,0025.94,0009.85
2022-03-03 23:33:00,,0823.3,5.00,0.00,29.9,28.3,00.0,38.9,31.6,08.6,-000.2,0010.93,0025.18,0009.91
2022-03-03 23:34:00,,0823.3,5.02,0.00,29.9,28.5,00.0,38.9,31.7,08.6,0000.0,0010.88,0023.82,0009.90
2022-03-03 23:35:00,,0823.3,4.99,0.00,29.9,28.7,00.0,38.9,31.7,08.8,-000.2,0010.87,0022.89,0009.87
2022-03-03 23:36:00,,0823.3,5.02,0.00,30.0,28.8,00.0,38.9,31.8,08.9,-000.5,0010.84,0022.84,0009.82
2022-03-03 23:37:00,,0823.3,4.99,0.00,30.0,29.0,00.0,38.9,31.8,08.8,0000.1,0010.83,0021.91,0009.82
2022-03-03 23:38:00,,0823.3,4.99,0.00,30.0,29.1,00.0,38.9,31.9,08.7,-000.4,0010.84,0021.19,0009.84
2022-03-03 23:39:00,,0823.3,5.01,0.00,30.1,29.1,00.0,38.9,31.9,08.6,-000.8,0010.92,0020.89,0009.88
2022-03-03 23:40:00,,0823.3,4.99,0.00,30.1,29.2,00.0,39.0,32.0,08.6,-000.3,0010.94,0019.86,0009.92
2022-03-03 23:41:00,,0823.3,5.01,0.00,30.2,29.3,00.0,39.0,32.0,08.7,-000.5,0010.95,0019.82,0009.92
2022-03-03 23:42:00,,0823.3,5.00,0.00,30.2,29.4,00.0,39.0,32.0,08.7,-000.6,0010.93,0019.80,0009.91
2022-03-03 23:43:00,,0823.3,5.00,0.00,30.2,29.4,00.0,39.0,32.1,08.8,-000.8,0010.91,0020.49,0009.88
2022-03-03 23:44:00,,0823.3,5.01,0.00,30.2,29.5,00.0,39.0,32.1,09.0,-001.0,0010.86,0021.47,0009.82
2022-03-03 23:45:00,,0823.2,4.99,0.00,30.3,29.5,00.0,39.1,32.2,09.2,-001.0,0010.86,0022.57,0009.78
2022-03-03 23:46:00,,0823.3,4.99,0.00,30.3,29.5,00.0,39.1,32.2,09.8,-001.1,0010.84,0022.37,0009.77
2022-03-03 23:47:00,,0823.2,5.02,0.00,30.4,29.6,00.0,39.1,32.2,10.2,-001.0,0010.86,0022.50,0009.80
2022-03-03 23:48:00,,0823.2,4.98,0.00,30.4,29.5,00.0,39.2,32.2,10.6,-000.5,0010.92,0022.40,0009.83
2022-03-03 23:49:00,,0823.2,5.00,0.00,30.3,27.8,00.0,39.2,31.9,11.0,-000.5,0010.99,0022.38,0009.89
2022-03-03 23:50:00,,0823.2,5.00,0.00,30.2,26.7,00.0,39.2,31.5,11.2,-000.2,0011.02,0022.30,0009.91
2022-03-03 23:51:00,,0823.1,5.00,0.00,30.1,26.9,00.0,39.1,31.5,11.6,-000.8,0011.02,0022.39,0009.91
2022-03-03 23:52:00,,0823.1,5.01,0.00,30.0,27.3,00.0,39.1,31.5,11.9,-001.0,0011.05,0022.81,0009.95
2022-03-03 23:53:00,,0823.2,5.01,0.00,30.0,27.6,00.0,39.0,31.6,12.1,-001.2,0011.11,0024.60,0010.00
2022-03-03 23:54:00,,0823.2,4.99,0.00,30.0,28.0,00.0,39.0,31.7,12.1,-001.1,0011.22,0025.38,0010.09
2022-03-03 23:55:00,,0823.2,5.00,0.00,30.0,28.3,00.0,39.0,31.7,12.3,-001.7,0011.33,0024.31,0010.18
2022-03-03 23:56:00,,0823.2,4.99,0.00,30.0,28.5,00.0,39.0,31.8,12.0,-002.2,0011.44,0023.22,0010.27
2022-03-03 23:57:00,,0823.2,5.01,0.00,30.1,28.7,00.0,39.0,31.8,12.0,-002.4,0011.56,0022.80,0010.37
2022-03-03 23:58:00,,0823.1,4.99,0.00,30.1,28.8,00.0,39.0,31.9,12.2,-002.5,0011.64,0022.62,0010.46
2022-03-03 23:59:00,,0823.2,4.98,0.00,30.1,28.9,00.0,39.0,31.9,12.3,-002.6,0011.68,0021.52,0010.51
